This is the latest recevied weather packets stored in our database for station/object K0NV. If no packets are shown the sender has not sent any weather packets the latest 10 day(s).
| Time | Temp. | Humidity | Pressure | Rain* | Wind** | Luminosity | Snow |
|---|---|---|---|---|---|---|---|
| 1777926060 | 25.56° C | 53% | 1007.6 hPa | 0 mm | - | 598 W/m² | - |
| 1777925757 | 25.56° C | 53% | 1007.6 hPa | 0 mm | - | 513 W/m² | - |
| 1777925455 | 25.56° C | 53% | 1007.7 hPa | 0 mm | - | 298 W/m² | - |
| 1777925151 | 25.56° C | 52% | 1007.9 hPa | 0 mm | - | 293 W/m² | - |
| 1777924848 | 25.56° C | 53% | 1007.6 hPa | 0 mm | - | 412 W/m² | - |
| 1777924544 | 25.56° C | 53% | 1007.7 hPa | 0 mm | - | 410 W/m² | - |
| 1777924241 | 25° C | 54% | 1007.8 hPa | 0 mm | - | 354 W/m² | - |
| 1777923937 | 25.56° C | 52% | 1007.7 hPa | 0 mm | - | 120 W/m² | - |
| 1777923633 | 25° C | 53% | 1008 hPa | 0 mm | - | 689 W/m² | - |
| 1777923330 | 25° C | 53% | 1007.9 hPa | 0 mm | - | 694 W/m² | - |
| 1777923029 | 25° C | 54% | 1008 hPa | 0 mm | - | 690 W/m² | - |
| 1777922726 | 25° C | 54% | 1007.9 hPa | 0 mm | - | 687 W/m² | - |
| 1777922424 | 25° C | 54% | 1007.8 hPa | 0 mm | - | 692 W/m² | - |
| 1777922122 | 25° C | 54% | 1007.9 hPa | 0 mm | - | 709 W/m² | - |
| 1777921818 | 25° C | 54% | 1008 hPa | 0 mm | - | 691 W/m² | - |
| 1777921514 | 25° C | 54% | 1007.8 hPa | 0 mm | - | 702 W/m² | - |
| 1777921210 | 24.44° C | 54% | 1008 hPa | 0 mm | - | 715 W/m² | - |
| 1777920907 | 24.44° C | 54% | 1008.1 hPa | 0 mm | - | 714 W/m² | - |
| 1777920604 | 25° C | 54% | 1007.9 hPa | 0 mm | - | 724 W/m² | - |
| 1777920299 | 25° C | 55% | 1008 hPa | 0 mm | - | 733 W/m² | - |
| 1777919994 | 25° C | 53% | 1008.3 hPa | 0 mm | - | 735 W/m² | - |
| 1777919692 | 24.44° C | 55% | 1008.2 hPa | 0 mm | - | 727 W/m² | - |
| 1777919390 | 24.44° C | 54% | 1008.3 hPa | 0 mm | - | 747 W/m² | - |
| 1777919086 | 25° C | 54% | 1008.1 hPa | 0 mm | - | 757 W/m² | - |
| 1777918784 | 24.44° C | 55% | 1008.2 hPa | 0 mm | - | 757 W/m² | - |
* Rain latest hour (hover to see other rain measurements)
** Current wind speed in m/s (hover to see current wind gust speed)